Weather History for Jacksonville, FL

Change the Weather History Date:

Saturday, December 8, 2012

  Actual Average Record
Temperature  
Mean Temperature 62 °F 57 °F  
Max Temperature 69 °F 68 °F 83 °F (1978)
Min Temperature 54 °F 45 °F 24 °F (2010)
Degree Days  
Heating Degree Days 3 9  
Month to date heating degree days 17 68  
Since 1 July heating degree days 265 241  
Cooling Degree Days 0 1  
Month to date cooling degree days 1 8  
Year to date cooling degree days 2744 2652  
Growing Degree Days 12 (Base 50)    
Moisture  
Dew Point 59 °F    
Average Humidity 87    
Maximum Humidity 100    
Minimum Humidity 73    
Precipitation  
Precipitation 0.00 in 0.08 in 1.80 in (2005)
Month to date precipitation 0.23 0.70  
Year to date precipitation 51.33 50.29  
Snow  
Snow 0.00 in 0.00 in 0.00 in (2001)
Month to date snowfall 0.0 0.0  
Since 1 July snowfall 0.0 0.0  
Snow Depth 0.00 in    
Sea Level Pressure  
Sea Level Pressure 30.05 in    
Wind  
Wind Speed 3 mph (East)    
Max Wind Speed 8 mph    
Max Gust Speed 16 mph    
Visibility 4 miles    
Events Fog    
T = Trace of Precipitation, MM = Missing Value Source: NWS Daily Summary

Daily Weather History Graph

Daily Weather History Graph

Search for Another Location

Airport:

Trip Planner

Search our weather history database for the weather conditions in past years. The results will help you decide how hot, cold, wet, or windy it might be!

Date:

Astronomy

Dec. 08, 2012 Rise Set
Actual Time 7:11 AM EST 5:25 PM EST
Civil Twilight 6:45 AM EST 5:52 PM EST
Nautical Twilight 6:15 AM EST 6:22 PM EST
Astronomical Twilight 5:46 AM EST 6:51 PM EST
Moon 1:52 AM EST (12/8) 1:39 PM EST (12/8)
Length of Visible Light 11h 06m
Length of Day
10h 14m
Waning Crescent, 28% of the Moon is Illuminated
Dec 8
Waning Crescent
Dec 13
New
Dec 20
First Quarter
Dec 28
Full
Jan 4
Last Quarter

Hourly Weather History & Observations

Time (EST) Temp. Dew Point Humidity Pressure Visibility Wind Dir Wind Speed Gust Speed Precip Events Conditions
12:21 AM 55.4 °F 53.6 °F 94% 30.02 in 0.5 mi NE 3.5 mph - N/A Fog Fog
12:39 AM 53.6 °F 53.6 °F 100% 30.02 in 0.2 mi NE 4.6 mph - N/A Fog Fog
12:56 AM 57.0 °F 55.9 °F 96% 30.03 in 0.5 mi East 3.5 mph - N/A Fog Fog
1:09 AM 57.2 °F 55.4 °F 94% 30.02 in 2.0 mi East 3.5 mph - N/A   Overcast
1:56 AM 57.9 °F 57.9 °F 100% 30.03 in 2.0 mi SE 5.8 mph - N/A   Overcast
2:14 AM 59.0 °F 57.2 °F 94% 30.03 in 3.0 mi ESE 3.5 mph - N/A   Overcast
2:56 AM 59.0 °F 57.9 °F 96% 30.02 in 5.0 mi Calm Calm - N/A   Overcast
3:56 AM 59.0 °F 57.9 °F 96% 30.02 in 5.0 mi South 4.6 mph - N/A   Overcast
4:56 AM 59.0 °F 57.9 °F 96% 30.03 in 5.0 mi South 3.5 mph - N/A   Overcast
5:56 AM 59.0 °F 57.0 °F 93% 30.04 in 5.0 mi SSW 3.5 mph - N/A   Overcast
6:56 AM 59.0 °F 57.0 °F 93% 30.05 in 4.0 mi Calm Calm - N/A   Overcast
7:28 AM 59.0 °F 57.2 °F 94% 30.06 in 2.0 mi Calm Calm - N/A   Overcast
7:56 AM 59.0 °F 57.0 °F 93% 30.07 in 2.0 mi East 4.6 mph - N/A   Overcast
8:06 AM 59.0 °F 57.2 °F 94% 30.06 in 1.5 mi Calm Calm - N/A   Overcast
8:27 AM 59.0 °F 57.2 °F 94% 30.07 in 0.8 mi East 3.5 mph - N/A   Overcast
8:56 AM 57.9 °F 57.9 °F 100% 30.08 in 0.8 mi ESE 3.5 mph - N/A   Overcast
9:26 AM 59.0 °F 57.2 °F 94% 30.08 in 1.0 mi East 4.6 mph - N/A   Overcast
9:56 AM 60.1 °F 57.9 °F 93% 30.09 in 1.2 mi East 3.5 mph - N/A   Overcast
10:04 AM 60.8 °F 57.2 °F 88% 30.09 in 2.5 mi NE 3.5 mph - N/A   Overcast
10:19 AM 60.8 °F 57.2 °F 88% 30.09 in 4.0 mi NE 4.6 mph - N/A   Overcast
10:56 AM 61.0 °F 59.0 °F 93% 30.09 in 8.0 mi Calm Calm - N/A   Overcast
11:21 AM 62.6 °F 59.0 °F 88% 30.08 in 9.0 mi Calm Calm - N/A   Overcast
11:56 AM 62.1 °F 59.0 °F 90% 30.07 in 6.0 mi South 4.6 mph - N/A   Overcast
12:56 PM 64.0 °F 59.0 °F 84% 30.05 in 8.0 mi Calm Calm - N/A   Overcast
1:37 PM 66.2 °F 60.8 °F 83% 30.03 in 9.0 mi Calm Calm - N/A   Mostly Cloudy
1:56 PM 66.9 °F 60.1 °F 79% 30.03 in 10.0 mi East 3.5 mph - N/A   Mostly Cloudy
2:56 PM 69.1 °F 61.0 °F 75% 30.02 in 9.0 mi ESE 5.8 mph - N/A   Mostly Cloudy
3:30 PM 69.8 °F 60.8 °F 73% 30.02 in 10.0 mi Variable 4.6 mph - N/A   Mostly Cloudy
3:56 PM 68.0 °F 61.0 °F 78% 30.02 in 10.0 mi ESE 3.5 mph - N/A   Overcast
4:13 PM 68.0 °F 60.8 °F 78% 30.02 in 10.0 mi SE 5.8 mph - N/A   Overcast
4:47 PM 68.0 °F 60.8 °F 78% 30.02 in 10.0 mi ESE 4.6 mph - N/A   Mostly Cloudy
4:56 PM 66.9 °F 61.0 °F 81% 30.03 in 10.0 mi ESE 5.8 mph - N/A   Mostly Cloudy
5:56 PM 61.0 °F 59.0 °F 93% 30.04 in 8.0 mi ENE 5.8 mph - N/A   Scattered Clouds
6:05 PM 60.8 °F 59.0 °F 94% 30.04 in 7.0 mi ENE 6.9 mph - N/A   Overcast
6:17 PM 60.8 °F 60.8 °F 100% 30.05 in 1.0 mi ENE 5.8 mph - N/A   Overcast
6:27 PM 60.8 °F 60.8 °F 100% 30.05 in 0.5 mi ENE 6.9 mph - N/A   Overcast
6:51 PM 60.8 °F 59.0 °F 94% 30.06 in 0.2 mi ENE 5.8 mph - N/A Fog Fog
6:56 PM 60.1 °F 60.1 °F 100% 30.06 in 0.2 mi NE 5.8 mph - N/A Fog Fog
7:56 PM 60.1 °F 59.0 °F 96% 30.07 in 0.2 mi East 4.6 mph - N/A Fog Fog
8:56 PM 60.1 °F 60.1 °F 100% 30.09 in 0.2 mi Calm Calm - N/A Fog Fog
9:56 PM 60.1 °F 60.1 °F 100% 30.09 in 0.1 mi Calm Calm - N/A Fog Fog
10:56 PM 60.1 °F 59.0 °F 96% 30.08 in 0.1 mi Calm Calm - N/A Fog Fog
11:16 PM 60.8 °F 60.8 °F 100% 30.08 in 0.1 mi Calm Calm - N/A Fog Fog
11:56 PM 60.1 °F 60.1 °F 100% 30.07 in 0.1 mi Calm Calm - N/A Fog Fog